Back to catalog

SPEQTRE

AliveScienceSSO
NORAD 66769·PAYLOAD·🇸🇬 Singapore

Launched Nov 28, 2025 from Vandenberg Space Force Base

Loading…

Next Passes (next 24 hours)

TLE

FreshSource: Space-Track

Epoch: Sep 14, 2026, 12:13 UTC

1 66769U 25276DH  26257.50946693  .00003633  00000-0  16617-3 0  9999
2 66769  97.4132 329.9445 0000393  79.0380 281.0900 15.21166948 44012

Track SPEQTRE in real time with AllMySat

Download on the App Store